CHINASAT 16 (SJ-13)

Last updated on Wed Sep 09 2026 00:03:01 GMT+0000 (Coordinated Universal Time)

1 42662U 17018A 26251.58687821 -.00000373 00000+0 00000+0 0 9990 2 42662 0.0808 91.4387 0007274 136.8088 81.2099 1.00267801 34588
UTC large
Height (km)
Speed (km/s)
/
Latitude / Longitude
Inclination (degrees)
Orbital Period (minutes)
Azimuth
Elevation
Range (km)
Doppler Factor

Next 0 passes for location: London (51.5072 / 0.1276)

No passes found over London.
CHINASAT 16 (SJ-13)